Tracking 19559 objects as of 26-Mar-2019
HD Live streaming from Space Station
objects crossing your sky now

IRIDIUM 24

Track IRIDIUM 24 now!
10-day predictions
IRIDIUM 24 is classified as:


NORAD ID: 25105
Int'l Code: 1997-082B
Perigee: 756.9 km
Apogee: 774.6 km
Inclination: 86.4 °
Period: 100.0 minutes
Semi major axis: 7136 km
RCS: 4.2836 m2 (large)
Launch date: December 20, 1997
Source: United States (US)
Launch site: AIR FORCE WESTERN TEST RANGE (AFWTR)
aabbcc
Your satellite tracking list
Your tracking list is empty




NASA's NSSDC Master Catalog

Two Line Element Set (TLE):
1 25105U 97082B   19084.81037191 +.00000085 +00000-0 +20661-4 0  9993
2 25105 086.3914 322.3509 0012373 025.8861 334.2954 14.39969719115652
Source of the keplerian elements: AFSPC